Location: Wolf Lake
(46.8518°N, 80.6381°W)
Time: 11:25:07
(UTC-04:00)

ISS - Pass Details

Date: 20 March 2026
Orbit: 416 x 425 km, 51.6° (Epoch: 19 April)

Event Time Altitude Azimuth Distance (km) Brightness Sun altitude
Rises 21:52:08 0° 294° (WNW) 2,387 1.5 -23.3°
Reaches altitude 10° 21:54:17 10° 299° (WNW) 1,518 0.2 -23.6°
Enters shadow 21:56:43 38° 327° (NNW) 663 -2.4 -24.0°
